Saratoga, WY

6:39 AM MST on January 18, 2017 (GMT -0700)
Shively

Weather History for KSAA - August, 2014

Change the Weather History Date:

Tuesday, August 19, 2014

  Actual Average Record
Temperature  
Mean Temperature 62 °F -  
Max Temperature 73 °F 81 °F 73 °F (2014)
Min Temperature 50 °F 48 °F 33 °F (2015)
Degree Days  
Heating Degree Days 4    
Growing Degree Days 12 (Base 50)    
Moisture  
Dew Point 41 °F    
Average Humidity 51    
Maximum Humidity 82    
Minimum Humidity 27    
Precipitation  
Precipitation 0.00 in - - ()
Sea Level Pressure  
Sea Level Pressure 30.10 in    
Wind  
Wind Speed - (North)    
Max Wind Speed -    
Max Gust Speed -    
Visibility 10 miles    
Events Rain    
Averages and records for this station are not official NWS values.
T = Trace of Precipitation, MM = Missing Value Source: NWS Daily Summary

Daily Weather History Graph

Daily Weather History Graph

Search for Another Location

Airport or City:

Trip Planner

Search our weather history database for the weather conditions in past years. The results will help you decide how hot, cold, wet, or windy it might be!

Date:

Astronomy

Aug. 19, 2014 Rise Set
Actual Time 6:20 AM MDT 8:00 PM MDT
Civil Twilight 5:50 AM MDT 8:29 PM MDT
Nautical Twilight 5:15 AM MDT 9:05 PM MDT
Astronomical Twilight 4:37 AM MDT 9:43 PM MDT
Moon 1:13 AM MDT (8/19) 4:00 PM MDT (8/19)
Length of Visible Light 14h 39m
Length of Day
13h 40m
Waning Crescent, 28% of the Moon is Illuminated
Aug 19
Waning Crescent
Aug 25
New
Sep 2
First Quarter
Sep 8
Full
Sep 15
Last Quarter

Hourly Weather History & Observations

Time (MDT) Temp. Dew Point Humidity Pressure Visibility Wind Dir Wind Speed Gust Speed Precip Events Conditions
12:15 AM 53.6 °F 35.6 °F 51% 30.14 in 10.0 mi North - - N/A   Clear
12:35 AM 55.4 °F 35.6 °F 47% 30.14 in 10.0 mi North - - N/A   Clear
12:55 AM 53.6 °F 35.6 °F 51% 30.13 in 10.0 mi North - - N/A   Clear
1:15 AM 55.4 °F 35.6 °F 47% 30.13 in 10.0 mi North - - N/A   Clear
1:35 AM 51.8 °F 35.6 °F 54% 30.12 in 10.0 mi North - - N/A   Clear
1:55 AM 57.2 °F 35.6 °F 44% 30.12 in 10.0 mi North - - N/A   Clear
2:15 AM 53.6 °F 35.6 °F 51% 30.11 in 10.0 mi North - - N/A   Clear
2:35 AM 51.8 °F 35.6 °F 54% 30.12 in 10.0 mi North - - N/A   Clear
2:55 AM 53.6 °F 37.4 °F 54% 30.11 in 10.0 mi North - - N/A   Clear
3:15 AM 51.8 °F 37.4 °F 58% 30.12 in 10.0 mi North - - N/A   Clear
3:35 AM 51.8 °F 37.4 °F 58% 30.12 in 10.0 mi North - - N/A   Clear
3:55 AM 50.0 °F 35.6 °F 58% 30.10 in 10.0 mi North - - N/A   Clear
4:15 AM 53.6 °F 35.6 °F 51% 30.11 in 10.0 mi North - - N/A   Clear
4:35 AM 51.8 °F 35.6 °F 54% 30.11 in 10.0 mi North - - N/A   Clear
4:55 AM 50.0 °F 35.6 °F 58% 30.10 in 10.0 mi North - - N/A   Clear
5:15 AM 51.8 °F 35.6 °F 54% 30.11 in 10.0 mi North - - N/A   Clear
5:35 AM 53.6 °F 35.6 °F 51% 30.10 in 10.0 mi North - - N/A   Clear
5:55 AM 53.6 °F 35.6 °F 51% 30.11 in 10.0 mi North - - N/A   Clear
6:15 AM 51.8 °F 35.6 °F 54% 30.11 in 10.0 mi North - - N/A   Clear
6:35 AM 53.6 °F 35.6 °F 51% 30.11 in 10.0 mi North - - N/A   Clear
6:55 AM 55.4 °F 37.4 °F 51% 30.11 in 10.0 mi North - - N/A   Clear
7:15 AM 57.2 °F 35.6 °F 44% 30.11 in 10.0 mi North - - N/A   Clear
7:35 AM 59.0 °F 35.6 °F 42% 30.12 in 10.0 mi North - - N/A   Clear
7:55 AM 59.0 °F 35.6 °F 42% 30.12 in 10.0 mi North - - N/A   Clear
8:15 AM 59.0 °F 37.4 °F 45% 30.13 in 10.0 mi North - - N/A   Clear
8:35 AM 62.6 °F 37.4 °F 39% 30.13 in 10.0 mi North - - N/A   Clear
8:55 AM 64.4 °F 37.4 °F 37% 30.13 in 10.0 mi North - - N/A   Clear
9:15 AM 66.2 °F 37.4 °F 35% 30.13 in 10.0 mi North - - N/A   Clear
9:35 AM 66.2 °F 37.4 °F 35% 30.14 in 10.0 mi North - - N/A   Clear
9:55 AM 68.0 °F 37.4 °F 33% 30.15 in 10.0 mi North - - N/A   Clear
10:15 AM 71.6 °F 35.6 °F 27% 30.15 in 10.0 mi North - - N/A   Clear
10:35 AM 71.6 °F 35.6 °F 27% 30.15 in 10.0 mi North - - N/A   Clear
10:55 AM 73.4 °F 37.4 °F 27% 30.15 in 10.0 mi North - - N/A   Clear
11:15 AM 71.6 °F 37.4 °F 29% 30.14 in 10.0 mi North - - N/A   Clear
11:35 AM 73.4 °F 37.4 °F 27% 30.14 in 10.0 mi North - - N/A   Clear
11:55 AM 73.4 °F 37.4 °F 27% 30.14 in 10.0 mi North - - N/A   Clear
12:15 PM 69.8 °F 37.4 °F 31% 30.13 in 10.0 mi North - - N/A   Mostly Cloudy
12:35 PM 69.8 °F 37.4 °F 31% 30.13 in 10.0 mi North - - N/A   Overcast
12:55 PM 69.8 °F 37.4 °F 31% 30.13 in 10.0 mi North - - N/A   Mostly Cloudy
1:15 PM 69.8 °F 37.4 °F 31% 30.13 in 10.0 mi North - - N/A   Overcast
1:35 PM 68.0 °F 41.0 °F 37% 30.13 in 10.0 mi North - - N/A Rain Light Rain
1:55 PM 68.0 °F 41.0 °F 37% 30.13 in 10.0 mi North - - N/A   Scattered Clouds
2:15 PM 66.2 °F 44.6 °F 46% 30.12 in 10.0 mi North - - N/A   Scattered Clouds
2:35 PM 64.4 °F 44.6 °F 49% 30.13 in 10.0 mi North - - N/A   Mostly Cloudy
3:15 PM 64.4 °F 46.4 °F 52% 30.13 in 10.0 mi North - - N/A   Light Drizzle
3:35 PM 60.8 °F 48.2 °F 63% 30.11 in 10.0 mi North - - N/A   Light Drizzle
3:55 PM 60.8 °F 46.4 °F 59% 30.11 in 10.0 mi North - - N/A   Overcast
4:15 PM 60.8 °F 50.0 °F 68% 30.10 in 10.0 mi North - - N/A   Overcast
4:35 PM 62.6 °F 50.0 °F 63% 30.08 in 10.0 mi North - - N/A   Overcast
4:55 PM 62.6 °F 50.0 °F 63% 30.08 in 10.0 mi North - - N/A   Overcast
5:15 PM 64.4 °F 46.4 °F 52% 30.08 in 10.0 mi North - - N/A   Overcast
5:35 PM 64.4 °F 46.4 °F 52% 30.07 in 10.0 mi North - - N/A   Mostly Cloudy
5:55 PM 64.4 °F 48.2 °F 56% 30.07 in 10.0 mi North - - N/A   Scattered Clouds
6:15 PM 64.4 °F 46.4 °F 52% 30.07 in 10.0 mi North - - N/A   Clear
6:35 PM 64.4 °F 48.2 °F 56% 30.07 in 10.0 mi North - - N/A   Clear
6:55 PM 62.6 °F 50.0 °F 63% 30.05 in 10.0 mi North - - N/A   Clear
7:15 PM 62.6 °F 50.0 °F 63% 30.05 in 10.0 mi North - - N/A   Clear
7:35 PM 60.8 °F 50.0 °F 68% 30.05 in 10.0 mi North - - N/A   Clear
7:55 PM 59.0 °F 48.2 °F 67% 30.05 in 10.0 mi North - - N/A   Clear
8:15 PM 59.0 °F 50.0 °F 72% 30.04 in 10.0 mi North - - N/A   Clear
8:40 PM 59.0 °F 48.2 °F 67% 30.05 in 10.0 mi North - - N/A   Clear
8:55 PM 57.2 °F 48.2 °F 72% 30.05 in 10.0 mi North - - N/A   Clear
9:15 PM 59.0 °F 48.2 °F 67% 30.05 in 10.0 mi North - - N/A   Clear
9:35 PM 59.0 °F 48.2 °F 67% 30.06 in 10.0 mi North - - N/A   Scattered Clouds
9:55 PM 59.0 °F 46.4 °F 63% 30.06 in 10.0 mi North - - N/A   Mostly Cloudy
10:15 PM 60.8 °F 46.4 °F 59% 30.05 in 10.0 mi North - - N/A   Mostly Cloudy
10:35 PM 60.8 °F 46.4 °F 59% 30.05 in 10.0 mi North - - N/A   Overcast
10:55 PM 60.8 °F 46.4 °F 59% 30.06 in 10.0 mi North - - N/A Rain Light Rain
11:35 PM 59.0 °F 50.0 °F 72% 30.06 in 10.0 mi North - - N/A Rain Light Rain
11:55 PM 57.2 °F 51.8 °F 82% 30.06 in 10.0 mi North - - N/A   Overcast